Location: Bovenkerk
(52.2915°N, 4.8336°E)
Time: 09:14:22
(UTC+00:00)

Cosmos 2082 Rocket - Pass Details

Date: 09 April 2020
Orbit: 831 x 855 km, 71.0° (Epoch: 01 June)

Event Time Altitude Azimuth Distance (km) Brightness Sun altitude
Exits shadow 20:33:42 16° 82° (E) 2,066 3.8 -17.6°
Drops below altitude 10° 20:35:56 10° 60° (ENE) 2,467 4.4 -17.9°
Sets 20:39:11 0° 41° (NE) 3,412 5.4 -18.2°
